Location: Cheyres
(46.8153°N, 6.7877°E)
Time: 06:18:27
(UTC+00:00)

CUTE 1.7 + AOD 2 - Pass Details

Date: 02 July 2022
Orbit: 589 x 608 km, 97.7° (Epoch: 09 August)

Event Time Altitude Azimuth Distance (km) Brightness Sun altitude
Rises 02:17:00 0° 30° (NNE) 2,851 ? -11.3°
Reaches altitude 10° 02:20:04 10° 54° (NE) 1,937 ? -11.0°
Maximum altitude 02:22:28 15° 90° (E) 1,633 ? -10.8°
Drops below altitude 10° 02:24:52 10° 125° (SE) 1,922 ? -10.5°
Sets 02:27:52 0° 149° (SSE) 2,813 ? -10.2°
